GW4044 Weather Reports


time (UTC)temp
F
wind
direction
speed
knots
gust
knots
rain 1hr
in
rain 24hr
in
rain mn
in
humidity
%
barometer
mb
20260505230025 74 165 6.1 12.2 0.00 0.00 0.00 53 1015.6
20260505224524 74 175 8.7 14.8 0.00 0.00 0.00 52 1015.5
20260505223010 75 154 7.0 13.9 0.00 0.00 0.00 51 1015.5
20260505221516 76 164 6.1 14.8 0.00 0.00 0.00 49 1015.5
20260505220027 76 164 7.0 13.0 0.00 0.00 0.00 47 1015.6
20260505214531 76 163 7.8 13.9 0.00 0.00 0.00 47 1015.5
20260505213005 77 169 8.7 13.0 0.00 0.00 0.00 46 1015.6
20260505211512 77 177 7.8 12.2 0.00 0.00 0.00 47 1015.6
20260505210019 78 128 7.8 13.0 0.00 0.00 0.00 45 1015.6
20260505204522 78 163 5.2 14.8 0.00 0.00 0.00 45 1015.6
20260505203026 79 182 4.3 12.2 0.00 0.00 0.00 43 1015.5
20260505201513 79 153 7.0 13.0 0.00 0.00 0.00 44 1015.5
20260505200013 79 144 7.0 13.0 0.00 0.00 0.00 44 1015.8
20260505194535 78 178 6.1 8.7 0.00 0.00 0.00 44 1015.9
20260505193012 79 142 6.1 14.8 0.00 0.00 0.00 44 1016.2
20260505191508 78 165 5.2 11.3 0.00 0.00 0.00 43 1016.6
20260505190012 78 120 3.5 8.7 0.00 0.00 0.00 46 1016.8
20260505184516 78 152 6.1 10.4 0.00 0.00 0.00 46 1017.0
20260505183026 78 151 8.7 12.2 0.00 0.00 0.00 45 1017.0
20260505181505 78 183 6.1 11.3 0.00 0.00 0.00 45 1016.9
20260505180009 78 253 1.7 9.6 0.00 0.00 0.00 45 1016.7
20260505174529 77 139 2.6 6.1 0.00 0.00 0.00 45 1016.9
20260505173004 77 175 2.6 13.9 0.00 0.00 0.00 44 1017.1
20260505171530 78 200 2.6 7.0 0.00 0.00 0.00 43 1017.2
20260505170014 77 163 4.3 9.6 0.00 0.00 0.00 44 1017.5
20260505164517 77 88 2.6 5.2 0.00 0.00 0.00 44 1017.7
20260505163020 78 351 0.9 9.6 0.00 0.00 0.00 47 1018.0
20260505161505 75 177 4.3 10.4 0.00 0.00 0.00 46 1018.1
20260505153015 74 180 4.3 8.7 0.00 0.00 0.00 53 1018.3
20260505151518 75 240 3.5 7.0 0.00 0.00 0.00 52 1018.3
20260505124523 63 209 0.9 2.6 0.00 0.00 0.00 80 1018.1
20260505123050 60 123 0.9 1.7 0.00 0.00 0.00 85 1018.1
20260505121513 58 124 0.0 1.7 0.00 0.00 0.00 87 1018.1
20260505120019 56 156 0.0 0.9 0.00 0.00 0.00 89 1018.0
20260505114524 53 156 0.0 1.7 0.00 0.00 0.00 92 1017.8
20260505113033 51 156 0.0 1.7 0.00 0.00 0.00 93 1017.6
20260505111549 50 156 0.0 1.7 0.00 0.00 0.00 93 1017.6
20260505101509 50 157 0.0 1.7 0.00 0.00 0.00 93 1017.0
20260505100012 50 157 0.0 1.7 0.00 0.00 0.00 92 1016.7
20260505094517 51 157 0.0 0.0 0.00 0.00 0.00 92 1016.8
20260505093003 51 157 0.0 1.7 0.00 0.00 0.00 92 1016.7
20260505091505 51 157 0.0 0.9 0.00 0.00 0.00 92 1016.5
20260505090010 51 157 0.0 1.7 0.00 0.00 0.00 92 1016.3
20260505084518 51 157 0.0 1.7 0.00 0.00 0.00 92 1016.2
20260505083021 51 157 0.0 1.7 0.00 0.00 0.00 91 1016.1
20260505081531 51 157 0.0 0.9 0.00 0.00 0.00 91 1016.1
20260505080012 52 157 0.0 1.7 0.00 0.00 0.00 91 1016.0
20260505074512 52 157 0.0 1.7 0.00 0.00 0.00 91 1015.9
20260505073017 52 157 0.0 1.7 0.00 0.00 0.00 90 1015.9
20260505071520 52 157 0.0 1.7 0.00 0.00 0.00 90 1015.9
20260505070005 53 157 0.0 0.0 0.00 0.00 0.00 89 1015.9
20260505064506 53 157 0.0 0.0 0.00 0.00 0.00 88 1016.0
20260505063015 54 157 0.0 0.0 0.00 0.00 0.00 88 1016.1
20260505061529 54 157 0.0 1.7 0.00 0.00 0.00 87 1016.3
20260505060027 54 157 0.0 1.7 0.00 0.00 0.00 87 1016.5
20260505054508 54 157 0.0 1.7 0.00 0.00 0.00 87 1016.7
20260505053011 54 157 0.0 1.7 0.00 0.00 0.00 86 1016.8
20260505051516 55 157 0.0 1.7 0.00 0.00 0.00 86 1017.0
20260505041519 56 157 0.0 1.7 0.00 0.00 0.00 80 1017.1
20260505040020 57 157 0.0 1.7 0.00 0.00 0.00 79 1017.1
20260505034521 57 157 0.0 1.7 0.00 0.00 0.00 77 1017.2
20260505033028 58 157 0.0 0.0 0.00 0.00 0.00 74 1017.2
20260505031526 59 157 0.0 1.7 0.00 0.00 0.00 71 1017.2
20260505030014 60 157 0.0 1.7 0.00 0.00 0.00 69 1017.2
20260505024535 61 157 0.0 1.7 0.00 0.00 0.00 66 1017.2
20260505023022 62 157 0.0 1.7 0.00 0.00 0.00 1017.1
20260505021525 63 161 0.0 2.6 0.00 0.00 0.00 62 1017.0
20260505020026 64 143 0.9 4.3 0.00 0.00 0.00 60 1017.0
20260505020022 64 152 0.9 4.3 0.00 0.00 0.00 60 1017.0
20260505014518 64 180 0.9 3.5 0.00 0.00 0.00 59 1016.9
20260505013013 65 168 2.6 6.1 0.00 0.00 0.00 57 1016.8
20260505011508 66 167 2.6 6.1 0.00 0.00 0.00 55 1016.8
20260505010010 67 179 4.3 7.8 0.00 0.00 0.00 54 1016.7
20260505004517 67 177 2.6 9.6 0.00 0.00 0.00 54 1016.5
20260505003020 68 198 4.3 7.8 0.00 0.00 0.00 54 1016.4
20260505001506 68 204 4.3 7.8 0.00 0.00 0.00 55 1016.4
20260505000022 69 167 2.6 7.8 0.00 0.00 0.00 55 1016.4
20260504234509 69 159 6.1 9.6 0.00 0.00 0.00 53 1016.1
20260504233021 70 159 5.2 9.6 0.00 0.00 0.00 51 1016.2
20260504231528 70 200 5.2 8.7 0.00 0.00 0.00 49 1016.1